Butte, MT

11:33 PM MDT on July 24, 2017 (GMT -0600)
Mooney

Weather History for KBTM - June, 2013

Change the Weather History Date:

Thursday, June 20, 2013

  Actual Average Record
Temperature  
Mean Temperature 51 °F 57 °F  
Max Temperature 59 °F 72 °F 95 °F (1919)
Min Temperature 43 °F 42 °F 27 °F (1978)
Degree Days  
Heating Degree Days 14 8  
Month to date heating degree days 185 217  
Since 1 June heating degree days 185 217  
Since 1 July heating degree days 8972 9149  
Cooling Degree Days 0 0  
Month to date cooling degree days 1 0  
Year to date cooling degree days 1 0  
Since 1 June cooling degree days 1 0  
Moisture  
Dew Point 32 °F    
Average Humidity 52    
Maximum Humidity 70    
Minimum Humidity 33    
Precipitation  
Precipitation 0.01 in 0.07 in 0.59 in (1963)
Month to date precipitation 1.24 1.67  
Year to date precipitation 4.55 6.58  
Sea Level Pressure  
Sea Level Pressure 29.92 in    
Wind  
Wind Speed 8 mph (SSW)    
Max Wind Speed 28 mph    
Max Gust Speed 33 mph    
Visibility 10 miles    
Events Rain , Thunderstorm    
T = Trace of Precipitation, MM = Missing Value Source: NWS Daily Summary

Daily Weather History Graph

Daily Weather History Graph

Search for Another Location

Airport or City:

Trip Planner

Search our weather history database for the weather conditions in past years. The results will help you decide how hot, cold, wet, or windy it might be!

Date:

Astronomy

Jun. 20, 2013 Rise Set
Actual Time 5:39 AM MDT 9:24 PM MDT
Civil Twilight 5:00 AM MDT 10:02 PM MDT
Nautical Twilight 4:08 AM MDT 10:54 PM MDT
Astronomical Twilight 2:56 AM MDT 12:07 AM MDT
Moon 6:25 PM MDT (6/20) 3:16 AM MDT (6/20)
Length of Visible Light 17h 01m
Length of Day
15h 44m
Waxing Gibbous, 89% of the Moon is Illuminated
Jun 20
Waxing Gibbous
Jun 23
Full
Jun 29
Last Quarter
Jul 8
New
Jul 15
First Quarter

Hourly Weather History & Observations

Time (MDT) Temp. Windchill Dew Point Humidity Pressure Visibility Wind Dir Wind Speed Gust Speed Precip Events Conditions
12:53 AM 45.0 °F - 36.0 °F 71% 29.77 in 10.0 mi Calm Calm - N/A   Overcast
1:53 AM 45.0 °F - 35.1 °F 68% 29.78 in 10.0 mi Calm Calm - 0.00 in   Overcast
2:53 AM 46.0 °F 41.4 °F 32.0 °F 58% 29.79 in 10.0 mi WSW 9.2 mph 16.1 mph N/A   Overcast
3:53 AM 45.0 °F - 33.1 °F 63% 29.81 in 10.0 mi Calm Calm - N/A   Mostly Cloudy
4:53 AM 44.1 °F - 33.1 °F 65% 29.81 in 10.0 mi Calm Calm - N/A   Overcast
5:53 AM 45.0 °F 41.2 °F 32.0 °F 60% 29.84 in 10.0 mi SSW 6.9 mph - 0.00 in   Mostly Cloudy
6:53 AM 45.0 °F 40.6 °F 32.0 °F 60% 29.85 in 10.0 mi SSW 8.1 mph - N/A   Overcast
7:53 AM 46.0 °F 41.4 °F 32.0 °F 58% 29.85 in 10.0 mi SSW 9.2 mph - N/A   Overcast
8:53 AM 46.9 °F - 30.9 °F 54% 29.88 in 10.0 mi SW 11.5 mph 18.4 mph N/A   Overcast
9:53 AM 46.0 °F 41.9 °F 33.1 °F 61% 29.92 in 10.0 mi SSW 8.1 mph - N/A   Overcast
10:53 AM 48.0 °F - 32.0 °F 54% 29.95 in 10.0 mi SW 10.4 mph - N/A   Overcast
11:53 AM 51.1 °F - 30.9 °F 46% 29.94 in 10.0 mi SSW 11.5 mph 19.6 mph N/A   Overcast
12:53 PM 54.0 °F - 30.0 °F 40% 29.93 in 10.0 mi South 15.0 mph - N/A   Scattered Clouds
1:53 PM 52.0 °F - 34.0 °F 50% 29.93 in 10.0 mi NW 13.8 mph 20.7 mph N/A   Overcast
2:53 PM 53.1 °F - 33.1 °F 47% 29.93 in 10.0 mi SW 8.1 mph - 0.00 in Rain Light Rain
3:53 PM 55.9 °F - 28.0 °F 34% 29.91 in 10.0 mi SW 12.7 mph - 0.00 in   Overcast
4:53 PM 57.9 °F - 28.0 °F 32% 29.91 in 10.0 mi WSW 11.5 mph 18.4 mph N/A   Overcast
5:53 PM 57.0 °F - 30.0 °F 36% 29.91 in 10.0 mi SE 4.6 mph - 0.00 in   Overcast
6:43 PM 55.4 °F - 30.2 °F 38% 30.01 in 10.0 mi SSE 11.5 mph - N/A Thunderstorm Thunderstorm
6:53 PM 54.0 °F - 32.0 °F 43% 29.94 in 10.0 mi ESE 11.5 mph - N/A   Overcast
7:26 PM 51.8 °F - 33.8 °F 50% 30.03 in 10.0 mi SSW 18.4 mph 24.2 mph N/A Thunderstorm Overcast
7:41 PM 51.8 °F - 32.0 °F 47% 30.03 in 10.0 mi SSW 16.1 mph 26.5 mph N/A   Mostly Cloudy
7:53 PM 51.1 °F - 30.9 °F 46% 29.98 in 10.0 mi SSW 21.9 mph 27.6 mph N/A   Overcast
8:53 PM 48.9 °F - 33.1 °F 54% 30.00 in 10.0 mi South 3.5 mph - 0.00 in   Mostly Cloudy
9:53 PM 50.0 °F - 32.0 °F 50% 30.02 in 10.0 mi NW 3.5 mph - N/A   Partly Cloudy
10:53 PM 48.0 °F - 36.0 °F 63% 30.07 in 10.0 mi Calm Calm - 0.00 in Rain Light Rain
11:53 PM 45.0 °F 41.2 °F 37.9 °F 76% 30.03 in 10.0 mi North 6.9 mph - 0.01 in   Overcast